Location: Zagreb
(45.8000°N, 16.0000°E)
Time: 18:11:53
(UTC+02:00)

A-11 Canister half - Pass Details

Date: 17 August 2022
Orbit: 1524 x 1684 km, 47.3° (Epoch: 05 October)

Event Time Altitude Azimuth Distance (km) Brightness Sun altitude
Rises 02:23:05 0° 177° (S) 4,846 - -27.8°
Reaches altitude 10° 02:27:47 10° 158° (SSE) 3,891 - -27.5°
Exits shadow 02:30:09 14° 145° (SE) 3,577 10.6 -27.3°
Maximum altitude 02:33:19 17° 124° (ESE) 3,422 10.7 -27.1°
Drops below altitude 10° 02:38:54 10° 89° (E) 3,943 11.4 -26.7°
Sets 02:43:40 0° 71° (ENE) 4,942 12.3 -26.3°
